STARLINK-5646, 55461

Orbit data source: Space-Track

STARLINK-5646, 55461 is a payload satellite owned by SpaceX/Seattle (US) in LEO that was launched on Thu, 02 Feb 2023 UTC via an FALCON 9 launch vehicle from the Air Force Eastern Test Range (AFETR). Payload-class satellites include a variety of spacecraft equipped with specific instruments for various scientific and technological missions. These include communications satellites like Starlink; space stations such as the ISS; scientific satellites like the Hubble; Earth observation satellites from companies like Planet Labs, Umbra, and HawkEye 360; GPS; miniature CubeSats for education and research; and military/defense satellites.

Loading next visibility...
Identifier
55461, 2023-015N
Orbit
LEO
Country
Flag of USUS
Related business
Manufacturer
SpaceX/Seattle
Mission
Operational Commercial Communications
Bus & Motor
STARLINK, Unknown motor
Mass
305 kg wet, ~290 kg dry
Launch date (UTC)
2023-02-02 (3 years ago)
Launch vehicle
FALCON 9
Launch site
Air Force Eastern Test Range (AFETR)
Object type
Payload
Rocket body
Debris
Shape & HBR
Box + 1 Pan, 10.1 m
Radar Cross Section
13.562 m², Large (>1 m²)

Expand to show TLE details & history
Last TLE update: 12 hours ago

TLE from 12 hours ago
0 STARLINK-5646
1 55461U 23015N   25352.39855594 -.00000055  00000-0  11000-4 0  9994
2 55461  43.0054  47.8811 0001369 267.3367  92.7318 15.02535009158522
Epoch: 2025-12-18T09:33Z
TLE epoch observation values (Epoch: 2025-12-18T09:33:55.233Z)
Latitude
-0.00005°
Longitude
177.14627°
Altitude
558.906 km
Speed
7.584 km/s
True Right ascension
03h 11m 31s
True Declination
0° 00' 00"
Sunlit
Object was in full shadow at epoch
Visualization orbit readout
Latitude
Unknown
Longitude
Unknown
Altitude
Unknown
Speed
Unknown
Apparent Right ascension
Unknown
Apparent Declination
Unknown
Sunlit
N/A
Visualization observer readout
Local Sidereal Time
20:05:51
Azimuth
Unknown
Elevation
Unknown
Doppler factor
Unknown
Orbital elements
Apogee altitude
561.956 km
Perigee altitude
560.056 km
Semi-major axis
6,939.143 km
Eccentricity
0.00014
Inclination
43.0054°
RAAN
47.8811°
Arg. of periapsis
267.3367°
True anomaly
92.74747°
Mean anomaly
92.7318°
Eccentric anomaly
92.73963°
Mean motion
3.75478 °/min
Orbital period
95.88 mins
BSTAR
0.000011
Loading maneuver chart data...
Computing Atmospheric mass density...
Loading historical data...
Loading historical data...
Loading historical data...
Loading historical data...
Loading historical data...
Loading historical data...
Loading historical data...

Documentation

Showing up to 5 results
|